{"data":{"norad_id":22314,"intl_designator":"1993-003B","name":"TDRS 6","alt_names":[],"object_type":"PAYLOAD","status":"ACTIVE","operator":null,"country":"US","launch_date":"1993-01-13","launch_site_code":"AFETR","launch_vehicle":null,"mission":null,"orbit_class":"UNKNOWN","rcs_meters":28.6701,"size_class":null,"mass_kg":null,"dimensions":null,"purposes":["comms"],"wikipedia_slug":null,"has_3d_model":false,"image_url":null,"decayed_at":null,"tle_current":{"epoch":"2026-05-25T05:14:57.561792Z","epoch_age_seconds":50115,"freshness":"FRESH","line1":"1 22314U 93003B   26145.21872178 -.00000305  00000+0  00000+0 0  9998","line2":"2 22314  14.1828 357.2312 0006773 180.1499  98.1177  1.00279814122174","mean_motion":1.00279814,"eccentricity":0.0006773,"inclination_deg":14.1828,"raan_deg":357.2312,"arg_perigee_deg":180.1499,"mean_anomaly_deg":98.1177,"bstar":0,"rev_number":12217,"period_min":1435.981921546,"perigee_km":35755.787642631,"apogee_km":35812.900939788,"semimajor_km":42162.481291209,"source":"CELESTRAK","updated_at":"2026-05-25T13:38:13.804650Z"}}}